Location: Newark
(42.7133°N, 87.7910°W)
Time: 15:39:25
(UTC+00:00)

Transit 4A - Pass Details

Date: 22 September 2019
Orbit: 866 x 978 km, 66.8° (Epoch: 13 October)

Event Time Altitude Azimuth Distance (km) Brightness Sun altitude
Rises 02:03:41 0° 328° (NNW) 3,591 11.9 -24.5°
Reaches altitude 10° 02:06:15 10° 327° (NNW) 2,627 11.0 -24.9°
Maximum altitude 02:12:20 78° 242° (WSW) 926 7.8 -25.9°
Enters shadow 02:13:34 57° 172° (S) 1,048 7.9 -26.1°
